<?xml version="1.0" encoding="UTF-8" standalone="no" ?>
<gpx xmlns="http://www.topografix.com/GPX/1/1" xmlns:xsi="http://www.w3.org/2001/XMLSchema-instance" xsi:schemaLocation="http://www.topografix.com/GPX/1/1 http://www.topografix.com/GPX/1/1/gpx.xsd" version="1.1" creator="VisuGPX - https://www.visugpx.com">
  <metadata>
    <name>Ogeu de beaux singles</name>
    <desc><![CDATA[regroupement de différentes traces, sympa par temps plutôt assez sec]]></desc>
  </metadata>
  <trk>
    <name><![CDATA[2021-08-29 OGEU 2]]></name>
    <extensions>
      <line xmlns="http://www.topografix.com/GPX/gpx_style/0/2">
        <color>0000FF</color>
        <width>4</width>
      </line>
    </extensions>
    <trkseg>
      <trkpt lat="43.14414" lon="-0.50741">
        <ele>332.75</ele>
        <time>2021-08-29T09:12:34Z</time>
      </trkpt>
      <trkpt lat="43.14414" lon="-0.50741">
        <ele>332.75</ele>
        <time>2021-08-29T09:12:34Z</time>
      </trkpt>
      <trkpt lat="43.14414" lon="-0.50741">
        <ele>332.75</ele>
        <time>2021-08-29T09:12:34Z</time>
      </trkpt>
      <trkpt lat="43.14414" lon="-0.50741">
        <ele>332.75</ele>
        <time>2021-08-29T09:12:34Z</time>
      </trkpt>
      <trkpt lat="43.14414" lon="-0.50741">
        <ele>332.75</ele>
        <time>2021-08-29T09:12:35Z</time>
      </trkpt>
      <trkpt lat="43.14409" lon="-0.50747">
        <ele>333.71</ele>
        <time>2021-08-29T09:13:12Z</time>
      </trkpt>
      <trkpt lat="43.14403" lon="-0.50771">
        <ele>334.68</ele>
        <time>2021-08-29T09:13:26Z</time>
      </trkpt>
      <trkpt lat="43.14401" lon="-0.50792">
        <ele>336.6</ele>
        <time>2021-08-29T09:13:33Z</time>
      </trkpt>
      <trkpt lat="43.144" lon="-0.50794">
        <ele>335.64</ele>
        <time>2021-08-29T09:13:56Z</time>
      </trkpt>
      <trkpt lat="43.14403" lon="-0.50793">
        <ele>336.6</ele>
        <time>2021-08-29T09:14:27Z</time>
      </trkpt>
      <trkpt lat="43.14401" lon="-0.50795">
        <ele>335.64</ele>
        <time>2021-08-29T09:15:04Z</time>
      </trkpt>
      <trkpt lat="43.14401" lon="-0.50795">
        <ele>337.56</ele>
        <time>2021-08-29T09:15:06Z</time>
      </trkpt>
      <trkpt lat="43.14397" lon="-0.50821">
        <ele>337.56</ele>
        <time>2021-08-29T09:15:16Z</time>
      </trkpt>
      <trkpt lat="43.14387" lon="-0.50905">
        <ele>343.81</ele>
        <time>2021-08-29T09:15:40Z</time>
      </trkpt>
      <trkpt lat="43.14383" lon="-0.50933">
        <ele>347.17</ele>
        <time>2021-08-29T09:15:50Z</time>
      </trkpt>
      <trkpt lat="43.14375" lon="-0.50975">
        <ele>350.06</ele>
        <time>2021-08-29T09:16:04Z</time>
      </trkpt>
      <trkpt lat="43.14362" lon="-0.51009">
        <ele>351.98</ele>
        <time>2021-08-29T09:16:17Z</time>
      </trkpt>
      <trkpt lat="43.1436" lon="-0.51009">
        <ele>352.46</ele>
        <time>2021-08-29T09:16:18Z</time>
      </trkpt>
      <trkpt lat="43.14358" lon="-0.51008">
        <ele>352.46</ele>
        <time>2021-08-29T09:16:19Z</time>
      </trkpt>
      <trkpt lat="43.14356" lon="-0.51007">
        <ele>352.46</ele>
        <time>2021-08-29T09:16:20Z</time>
      </trkpt>
      <trkpt lat="43.14355" lon="-0.51006">
        <ele>352.94</ele>
        <time>2021-08-29T09:16:21Z</time>
      </trkpt>
      <trkpt lat="43.14353" lon="-0.51005">
        <ele>352.94</ele>
        <time>2021-08-29T09:16:22Z</time>
      </trkpt>
      <trkpt lat="43.14328" lon="-0.50968">
        <ele>355.83</ele>
        <time>2021-08-29T09:16:39Z</time>
      </trkpt>
      <trkpt lat="43.14288" lon="-0.50881">
        <ele>360.15</ele>
        <time>2021-08-29T09:17:09Z</time>
      </trkpt>
      <trkpt lat="43.14271" lon="-0.50802">
        <ele>360.15</ele>
        <time>2021-08-29T09:17:24Z</time>
      </trkpt>
      <trkpt lat="43.14235" lon="-0.50691">
        <ele>360.15</ele>
        <time>2021-08-29T09:17:42Z</time>
      </trkpt>
      <trkpt lat="43.14226" lon="-0.50662">
        <ele>360.63</ele>
        <time>2021-08-29T09:17:47Z</time>
      </trkpt>
      <trkpt lat="43.14218" lon="-0.50631">
        <ele>360.63</ele>
        <time>2021-08-29T09:17:52Z</time>
      </trkpt>
      <trkpt lat="43.14216" lon="-0.50625">
        <ele>361.11</ele>
        <time>2021-08-29T09:17:53Z</time>
      </trkpt>
      <trkpt lat="43.14183" lon="-0.50518">
        <ele>359.67</ele>
        <time>2021-08-29T09:18:07Z</time>
      </trkpt>
      <trkpt lat="43.14181" lon="-0.50509">
        <ele>359.67</ele>
        <time>2021-08-29T09:18:08Z</time>
      </trkpt>
      <trkpt lat="43.14136" lon="-0.50366">
        <ele>356.79</ele>
        <time>2021-08-29T09:18:24Z</time>
      </trkpt>
      <trkpt lat="43.14101" lon="-0.50263">
        <ele>354.86</ele>
        <time>2021-08-29T09:18:35Z</time>
      </trkpt>
      <trkpt lat="43.14096" lon="-0.50255">
        <ele>354.38</ele>
        <time>2021-08-29T09:18:36Z</time>
      </trkpt>
      <trkpt lat="43.14053" lon="-0.5018">
        <ele>351.98</ele>
        <time>2021-08-29T09:18:45Z</time>
      </trkpt>
      <trkpt lat="43.14047" lon="-0.50172">
        <ele>351.5</ele>
        <time>2021-08-29T09:18:46Z</time>
      </trkpt>
      <trkpt lat="43.13999" lon="-0.5011">
        <ele>348.13</ele>
        <time>2021-08-29T09:18:54Z</time>
      </trkpt>
      <trkpt lat="43.13991" lon="-0.50105">
        <ele>348.13</ele>
        <time>2021-08-29T09:18:55Z</time>
      </trkpt>
      <trkpt lat="43.13984" lon="-0.50103">
        <ele>347.65</ele>
        <time>2021-08-29T09:18:56Z</time>
      </trkpt>
      <trkpt lat="43.13976" lon="-0.50101">
        <ele>347.65</ele>
        <time>2021-08-29T09:18:57Z</time>
      </trkpt>
      <trkpt lat="43.13969" lon="-0.50101">
        <ele>347.65</ele>
        <time>2021-08-29T09:18:58Z</time>
      </trkpt>
      <trkpt lat="43.13961" lon="-0.50101">
        <ele>347.17</ele>
        <time>2021-08-29T09:18:59Z</time>
      </trkpt>
      <trkpt lat="43.13891" lon="-0.50102">
        <ele>344.29</ele>
        <time>2021-08-29T09:19:09Z</time>
      </trkpt>
      <trkpt lat="43.13883" lon="-0.501">
        <ele>344.29</ele>
        <time>2021-08-29T09:19:10Z</time>
      </trkpt>
      <trkpt lat="43.13876" lon="-0.50097">
        <ele>344.29</ele>
        <time>2021-08-29T09:19:11Z</time>
      </trkpt>
      <trkpt lat="43.13865" lon="-0.50087">
        <ele>343.81</ele>
        <time>2021-08-29T09:19:13Z</time>
      </trkpt>
      <trkpt lat="43.13859" lon="-0.5008">
        <ele>343.81</ele>
        <time>2021-08-29T09:19:14Z</time>
      </trkpt>
      <trkpt lat="43.13842" lon="-0.50052">
        <ele>342.85</ele>
        <time>2021-08-29T09:19:18Z</time>
      </trkpt>
      <trkpt lat="43.13835" lon="-0.50039">
        <ele>342.85</ele>
        <time>2021-08-29T09:19:20Z</time>
      </trkpt>
      <trkpt lat="43.13829" lon="-0.50035">
        <ele>342.85</ele>
        <time>2021-08-29T09:19:21Z</time>
      </trkpt>
      <trkpt lat="43.13823" lon="-0.50033">
        <ele>342.85</ele>
        <time>2021-08-29T09:19:22Z</time>
      </trkpt>
      <trkpt lat="43.13819" lon="-0.50034">
        <ele>342.85</ele>
        <time>2021-08-29T09:19:23Z</time>
      </trkpt>
      <trkpt lat="43.13814" lon="-0.50037">
        <ele>342.85</ele>
        <time>2021-08-29T09:19:24Z</time>
      </trkpt>
      <trkpt lat="43.13808" lon="-0.50039">
        <ele>342.85</ele>
        <time>2021-08-29T09:19:25Z</time>
      </trkpt>
      <trkpt lat="43.13779" lon="-0.50046">
        <ele>344.29</ele>
        <time>2021-08-29T09:19:31Z</time>
      </trkpt>
      <trkpt lat="43.1377" lon="-0.50043">
        <ele>344.29</ele>
        <time>2021-08-29T09:19:33Z</time>
      </trkpt>
      <trkpt lat="43.13766" lon="-0.50042">
        <ele>344.77</ele>
        <time>2021-08-29T09:19:34Z</time>
      </trkpt>
      <trkpt lat="43.13762" lon="-0.50039">
        <ele>344.77</ele>
        <time>2021-08-29T09:19:35Z</time>
      </trkpt>
      <trkpt lat="43.13758" lon="-0.50036">
        <ele>345.25</ele>
        <time>2021-08-29T09:19:36Z</time>
      </trkpt>
      <trkpt lat="43.13724" lon="-0.50009">
        <ele>346.69</ele>
        <time>2021-08-29T09:19:45Z</time>
      </trkpt>
      <trkpt lat="43.13717" lon="-0.50006">
        <ele>345.25</ele>
        <time>2021-08-29T09:19:46Z</time>
      </trkpt>
      <trkpt lat="43.13711" lon="-0.50004">
        <ele>344.77</ele>
        <time>2021-08-29T09:19:47Z</time>
      </trkpt>
      <trkpt lat="43.13704" lon="-0.50005">
        <ele>344.29</ele>
        <time>2021-08-29T09:19:48Z</time>
      </trkpt>
      <trkpt lat="43.13699" lon="-0.50008">
        <ele>344.29</ele>
        <time>2021-08-29T09:19:49Z</time>
      </trkpt>
      <trkpt lat="43.13694" lon="-0.50013">
        <ele>344.29</ele>
        <time>2021-08-29T09:19:50Z</time>
      </trkpt>
      <trkpt lat="43.1369" lon="-0.50019">
        <ele>344.29</ele>
        <time>2021-08-29T09:19:51Z</time>
      </trkpt>
      <trkpt lat="43.13685" lon="-0.50031">
        <ele>344.29</ele>
        <time>2021-08-29T09:19:53Z</time>
      </trkpt>
      <trkpt lat="43.13662" lon="-0.50101">
        <ele>345.73</ele>
        <time>2021-08-29T09:20:04Z</time>
      </trkpt>
      <trkpt lat="43.13648" lon="-0.50134">
        <ele>349.58</ele>
        <time>2021-08-29T09:20:12Z</time>
      </trkpt>
      <trkpt lat="43.13622" lon="-0.50172">
        <ele>351.5</ele>
        <time>2021-08-29T09:20:26Z</time>
      </trkpt>
      <trkpt lat="43.13591" lon="-0.50204">
        <ele>355.34</ele>
        <time>2021-08-29T09:20:42Z</time>
      </trkpt>
      <trkpt lat="43.1359" lon="-0.50206">
        <ele>355.34</ele>
        <time>2021-08-29T09:20:43Z</time>
      </trkpt>
      <trkpt lat="43.13588" lon="-0.50206">
        <ele>355.83</ele>
        <time>2021-08-29T09:20:46Z</time>
      </trkpt>
      <trkpt lat="43.13586" lon="-0.502">
        <ele>355.34</ele>
        <time>2021-08-29T09:20:49Z</time>
      </trkpt>
      <trkpt lat="43.13568" lon="-0.5019">
        <ele>358.71</ele>
        <time>2021-08-29T09:21:01Z</time>
      </trkpt>
      <trkpt lat="43.13563" lon="-0.5018">
        <ele>360.15</ele>
        <time>2021-08-29T09:21:07Z</time>
      </trkpt>
      <trkpt lat="43.13545" lon="-0.50149">
        <ele>363.04</ele>
        <time>2021-08-29T09:21:24Z</time>
      </trkpt>
      <trkpt lat="43.13509" lon="-0.5008">
        <ele>367.84</ele>
        <time>2021-08-29T09:21:58Z</time>
      </trkpt>
      <trkpt lat="43.13487" lon="-0.50041">
        <ele>370.24</ele>
        <time>2021-08-29T09:22:13Z</time>
      </trkpt>
      <trkpt lat="43.13466" lon="-0.50016">
        <ele>372.17</ele>
        <time>2021-08-29T09:22:26Z</time>
      </trkpt>
      <trkpt lat="43.13441" lon="-0.49993">
        <ele>375.53</ele>
        <time>2021-08-29T09:22:41Z</time>
      </trkpt>
      <trkpt lat="43.13405" lon="-0.49991">
        <ele>377.94</ele>
        <time>2021-08-29T09:22:59Z</time>
      </trkpt>
      <trkpt lat="43.13377" lon="-0.50005">
        <ele>380.82</ele>
        <time>2021-08-29T09:23:13Z</time>
      </trkpt>
      <trkpt lat="43.1335" lon="-0.50015">
        <ele>381.3</ele>
        <time>2021-08-29T09:23:27Z</time>
      </trkpt>
      <trkpt lat="43.13332" lon="-0.50036">
        <ele>377.94</ele>
        <time>2021-08-29T09:23:34Z</time>
      </trkpt>
      <trkpt lat="43.13331" lon="-0.50039">
        <ele>377.45</ele>
        <time>2021-08-29T09:23:35Z</time>
      </trkpt>
      <trkpt lat="43.13314" lon="-0.50064">
        <ele>374.09</ele>
        <time>2021-08-29T09:23:40Z</time>
      </trkpt>
      <trkpt lat="43.13293" lon="-0.5009">
        <ele>369.28</ele>
        <time>2021-08-29T09:23:45Z</time>
      </trkpt>
      <trkpt lat="43.13273" lon="-0.5009">
        <ele>364.96</ele>
        <time>2021-08-29T09:23:49Z</time>
      </trkpt>
      <trkpt lat="43.13266" lon="-0.50077">
        <ele>363.52</ele>
        <time>2021-08-29T09:23:51Z</time>
      </trkpt>
      <trkpt lat="43.13226" lon="-0.49976">
        <ele>360.63</ele>
        <time>2021-08-29T09:24:04Z</time>
      </trkpt>
      <trkpt lat="43.13216" lon="-0.49953">
        <ele>362.07</ele>
        <time>2021-08-29T09:24:09Z</time>
      </trkpt>
      <trkpt lat="43.13206" lon="-0.49922">
        <ele>364</ele>
        <time>2021-08-29T09:24:17Z</time>
      </trkpt>
      <trkpt lat="43.13207" lon="-0.4992">
        <ele>364</ele>
        <time>2021-08-29T09:24:18Z</time>
      </trkpt>
      <trkpt lat="43.1321" lon="-0.49917">
        <ele>364.48</ele>
        <time>2021-08-29T09:24:19Z</time>
      </trkpt>
      <trkpt lat="43.13212" lon="-0.49914">
        <ele>364.48</ele>
        <time>2021-08-29T09:24:20Z</time>
      </trkpt>
      <trkpt lat="43.13214" lon="-0.49912">
        <ele>364.48</ele>
        <time>2021-08-29T09:24:21Z</time>
      </trkpt>
      <trkpt lat="43.13255" lon="-0.49874">
        <ele>367.84</ele>
        <time>2021-08-29T09:24:36Z</time>
      </trkpt>
      <trkpt lat="43.13333" lon="-0.49806">
        <ele>364</ele>
        <time>2021-08-29T09:25:00Z</time>
      </trkpt>
      <trkpt lat="43.13338" lon="-0.49801">
        <ele>362.55</ele>
        <time>2021-08-29T09:25:01Z</time>
      </trkpt>
      <trkpt lat="43.13343" lon="-0.49796">
        <ele>362.55</ele>
        <time>2021-08-29T09:25:02Z</time>
      </trkpt>
      <trkpt lat="43.13357" lon="-0.49781">
        <ele>359.19</ele>
        <time>2021-08-29T09:25:05Z</time>
      </trkpt>
      <trkpt lat="43.13375" lon="-0.49766">
        <ele>356.31</ele>
        <time>2021-08-29T09:25:10Z</time>
      </trkpt>
      <trkpt lat="43.13375" lon="-0.49762">
        <ele>356.31</ele>
        <time>2021-08-29T09:25:11Z</time>
      </trkpt>
      <trkpt lat="43.13379" lon="-0.49761">
        <ele>354.86</ele>
        <time>2021-08-29T09:26:09Z</time>
      </trkpt>
      <trkpt lat="43.13387" lon="-0.49764">
        <ele>354.86</ele>
        <time>2021-08-29T09:26:11Z</time>
      </trkpt>
      <trkpt lat="43.13437" lon="-0.49779">
        <ele>351.02</ele>
        <time>2021-08-29T09:26:19Z</time>
      </trkpt>
      <trkpt lat="43.13445" lon="-0.49781">
        <ele>350.54</ele>
        <time>2021-08-29T09:26:20Z</time>
      </trkpt>
      <trkpt lat="43.1345" lon="-0.49781">
        <ele>350.54</ele>
        <time>2021-08-29T09:26:21Z</time>
      </trkpt>
      <trkpt lat="43.13457" lon="-0.4978">
        <ele>350.54</ele>
        <time>2021-08-29T09:26:23Z</time>
      </trkpt>
      <trkpt lat="43.13458" lon="-0.49779">
        <ele>350.54</ele>
        <time>2021-08-29T09:26:24Z</time>
      </trkpt>
      <trkpt lat="43.13456" lon="-0.49776">
        <ele>350.54</ele>
        <time>2021-08-29T09:26:26Z</time>
      </trkpt>
      <trkpt lat="43.13455" lon="-0.49776">
        <ele>350.06</ele>
        <time>2021-08-29T09:26:27Z</time>
      </trkpt>
      <trkpt lat="43.13453" lon="-0.49775">
        <ele>350.06</ele>
        <time>2021-08-29T09:26:28Z</time>
      </trkpt>
      <trkpt lat="43.1345" lon="-0.49774">
        <ele>349.1</ele>
        <time>2021-08-29T09:26:29Z</time>
      </trkpt>
      <trkpt lat="43.13447" lon="-0.49771">
        <ele>349.1</ele>
        <time>2021-08-29T09:26:30Z</time>
      </trkpt>
      <trkpt lat="43.13444" lon="-0.49769">
        <ele>349.1</ele>
        <time>2021-08-29T09:26:31Z</time>
      </trkpt>
      <trkpt lat="43.13441" lon="-0.49766">
        <ele>349.1</ele>
        <time>2021-08-29T09:26:32Z</time>
      </trkpt>
      <trkpt lat="43.13431" lon="-0.49756">
        <ele>349.1</ele>
        <time>2021-08-29T09:26:35Z</time>
      </trkpt>
      <trkpt lat="43.13425" lon="-0.49749">
        <ele>349.1</ele>
        <time>2021-08-29T09:26:37Z</time>
      </trkpt>
      <trkpt lat="43.13419" lon="-0.49735">
        <ele>351.5</ele>
        <time>2021-08-29T09:26:41Z</time>
      </trkpt>
      <trkpt lat="43.13384" lon="-0.49698">
        <ele>352.94</ele>
        <time>2021-08-29T09:26:52Z</time>
      </trkpt>
      <trkpt lat="43.13359" lon="-0.49662">
        <ele>351.5</ele>
        <time>2021-08-29T09:27:00Z</time>
      </trkpt>
      <trkpt lat="43.13334" lon="-0.49624">
        <ele>350.06</ele>
        <time>2021-08-29T09:27:12Z</time>
      </trkpt>
      <trkpt lat="43.13315" lon="-0.49598">
        <ele>350.06</ele>
        <time>2021-08-29T09:27:19Z</time>
      </trkpt>
      <trkpt lat="43.13314" lon="-0.4958">
        <ele>351.98</ele>
        <time>2021-08-29T09:27:24Z</time>
      </trkpt>
      <trkpt lat="43.13309" lon="-0.49534">
        <ele>353.42</ele>
        <time>2021-08-29T09:27:37Z</time>
      </trkpt>
      <trkpt lat="43.13295" lon="-0.49491">
        <ele>355.83</ele>
        <time>2021-08-29T09:27:48Z</time>
      </trkpt>
      <trkpt lat="43.1328" lon="-0.49461">
        <ele>353.9</ele>
        <time>2021-08-29T09:27:55Z</time>
      </trkpt>
      <trkpt lat="43.13236" lon="-0.49427">
        <ele>353.9</ele>
        <time>2021-08-29T09:28:07Z</time>
      </trkpt>
      <trkpt lat="43.13236" lon="-0.49427">
        <ele>353.9</ele>
        <time>2021-08-29T09:28:07Z</time>
      </trkpt>
      <trkpt lat="43.13236" lon="-0.49427">
        <ele>353.9</ele>
        <time>2021-08-29T09:28:07Z</time>
      </trkpt>
      <trkpt lat="43.13246" lon="-0.49434">
        <ele>354.86</ele>
        <time>2021-08-29T09:28:45Z</time>
      </trkpt>
      <trkpt lat="43.13246" lon="-0.49434">
        <ele>354.86</ele>
        <time>2021-08-29T09:28:45Z</time>
      </trkpt>
      <trkpt lat="43.13246" lon="-0.49434">
        <ele>354.86</ele>
        <time>2021-08-29T09:28:45Z</time>
      </trkpt>
      <trkpt lat="43.13246" lon="-0.49434">
        <ele>354.86</ele>
        <time>2021-08-29T09:28:45Z</time>
      </trkpt>
      <trkpt lat="43.13246" lon="-0.49434">
        <ele>354.86</ele>
        <time>2021-08-29T09:28:45Z</time>
      </trkpt>
      <trkpt lat="43.13246" lon="-0.49434">
        <ele>354.86</ele>
        <time>2021-08-29T09:28:45Z</time>
      </trkpt>
      <trkpt lat="43.13246" lon="-0.49425">
        <ele>354.86</ele>
        <time>2021-08-29T09:28:50Z</time>
      </trkpt>
      <trkpt lat="43.13228" lon="-0.49346">
        <ele>354.86</ele>
        <time>2021-08-29T09:29:06Z</time>
      </trkpt>
      <trkpt lat="43.13227" lon="-0.49341">
        <ele>354.86</ele>
        <time>2021-08-29T09:29:07Z</time>
      </trkpt>
      <trkpt lat="43.13202" lon="-0.49292">
        <ele>354.86</ele>
        <time>2021-08-29T09:29:19Z</time>
      </trkpt>
      <trkpt lat="43.13195" lon="-0.49277">
        <ele>352.94</ele>
        <time>2021-08-29T09:29:22Z</time>
      </trkpt>
      <trkpt lat="43.13191" lon="-0.49266">
        <ele>351.98</ele>
        <time>2021-08-29T09:29:24Z</time>
      </trkpt>
      <trkpt lat="43.13187" lon="-0.49256">
        <ele>353.9</ele>
        <time>2021-08-29T09:29:27Z</time>
      </trkpt>
      <trkpt lat="43.13163" lon="-0.49209">
        <ele>356.31</ele>
        <time>2021-08-29T09:29:41Z</time>
      </trkpt>
      <trkpt lat="43.13133" lon="-0.49195">
        <ele>356.79</ele>
        <time>2021-08-29T09:29:53Z</time>
      </trkpt>
      <trkpt lat="43.13096" lon="-0.49205">
        <ele>360.15</ele>
        <time>2021-08-29T09:30:09Z</time>
      </trkpt>
      <trkpt lat="43.13061" lon="-0.49206">
        <ele>363.52</ele>
        <time>2021-08-29T09:30:25Z</time>
      </trkpt>
      <trkpt lat="43.13032" lon="-0.49206">
        <ele>366.4</ele>
        <time>2021-08-29T09:30:38Z</time>
      </trkpt>
      <trkpt lat="43.13006" lon="-0.49201">
        <ele>367.84</ele>
        <time>2021-08-29T09:30:50Z</time>
      </trkpt>
      <trkpt lat="43.12977" lon="-0.49206">
        <ele>369.28</ele>
        <time>2021-08-29T09:31:01Z</time>
      </trkpt>
      <trkpt lat="43.12931" lon="-0.49221">
        <ele>371.21</ele>
        <time>2021-08-29T09:31:15Z</time>
      </trkpt>
      <trkpt lat="43.12867" lon="-0.49241">
        <ele>371.21</ele>
        <time>2021-08-29T09:31:30Z</time>
      </trkpt>
      <trkpt lat="43.12853" lon="-0.49246">
        <ele>369.76</ele>
        <time>2021-08-29T09:31:33Z</time>
      </trkpt>
      <trkpt lat="43.12844" lon="-0.49244">
        <ele>369.76</ele>
        <time>2021-08-29T09:31:35Z</time>
      </trkpt>
      <trkpt lat="43.12841" lon="-0.49241">
        <ele>369.28</ele>
        <time>2021-08-29T09:31:36Z</time>
      </trkpt>
      <trkpt lat="43.12839" lon="-0.49237">
        <ele>369.28</ele>
        <time>2021-08-29T09:31:37Z</time>
      </trkpt>
      <trkpt lat="43.12837" lon="-0.49231">
        <ele>369.28</ele>
        <time>2021-08-29T09:31:38Z</time>
      </trkpt>
      <trkpt lat="43.12835" lon="-0.49226">
        <ele>369.28</ele>
        <time>2021-08-29T09:31:39Z</time>
      </trkpt>
      <trkpt lat="43.1283" lon="-0.49208">
        <ele>369.28</ele>
        <time>2021-08-29T09:31:42Z</time>
      </trkpt>
      <trkpt lat="43.12811" lon="-0.49153">
        <ele>372.17</ele>
        <time>2021-08-29T09:31:52Z</time>
      </trkpt>
      <trkpt lat="43.12803" lon="-0.49125">
        <ele>373.61</ele>
        <time>2021-08-29T09:31:57Z</time>
      </trkpt>
      <trkpt lat="43.12784" lon="-0.49058">
        <ele>376.01</ele>
        <time>2021-08-29T09:32:11Z</time>
      </trkpt>
      <trkpt lat="43.12777" lon="-0.48997">
        <ele>379.38</ele>
        <time>2021-08-29T09:32:24Z</time>
      </trkpt>
      <trkpt lat="43.12753" lon="-0.48954">
        <ele>381.3</ele>
        <time>2021-08-29T09:32:36Z</time>
      </trkpt>
      <trkpt lat="43.12728" lon="-0.48907">
        <ele>381.78</ele>
        <time>2021-08-29T09:32:47Z</time>
      </trkpt>
      <trkpt lat="43.12684" lon="-0.48845">
        <ele>384.18</ele>
        <time>2021-08-29T09:33:04Z</time>
      </trkpt>
      <trkpt lat="43.1265" lon="-0.48796">
        <ele>385.15</ele>
        <time>2021-08-29T09:33:18Z</time>
      </trkpt>
      <trkpt lat="43.1265" lon="-0.48789">
        <ele>385.15</ele>
        <time>2021-08-29T09:33:19Z</time>
      </trkpt>
      <trkpt lat="43.12649" lon="-0.48775">
        <ele>383.22</ele>
        <time>2021-08-29T09:33:21Z</time>
      </trkpt>
      <trkpt lat="43.12649" lon="-0.48768">
        <ele>383.22</ele>
        <time>2021-08-29T09:33:22Z</time>
      </trkpt>
      <trkpt lat="43.1265" lon="-0.4876">
        <ele>383.22</ele>
        <time>2021-08-29T09:33:23Z</time>
      </trkpt>
      <trkpt lat="43.12652" lon="-0.48747">
        <ele>383.22</ele>
        <time>2021-08-29T09:33:25Z</time>
      </trkpt>
      <trkpt lat="43.12652" lon="-0.48742">
        <ele>383.22</ele>
        <time>2021-08-29T09:33:26Z</time>
      </trkpt>
      <trkpt lat="43.1265" lon="-0.48739">
        <ele>383.22</ele>
        <time>2021-08-29T09:33:27Z</time>
      </trkpt>
      <trkpt lat="43.12647" lon="-0.48738">
        <ele>383.22</ele>
        <time>2021-08-29T09:33:28Z</time>
      </trkpt>
      <trkpt lat="43.12645" lon="-0.48739">
        <ele>383.22</ele>
        <time>2021-08-29T09:33:29Z</time>
      </trkpt>
      <trkpt lat="43.12643" lon="-0.48741">
        <ele>383.22</ele>
        <time>2021-08-29T09:33:30Z</time>
      </trkpt>
      <trkpt lat="43.12641" lon="-0.48744">
        <ele>383.22</ele>
        <time>2021-08-29T09:33:31Z</time>
      </trkpt>
      <trkpt lat="43.12638" lon="-0.4875">
        <ele>384.18</ele>
        <time>2021-08-29T09:33:33Z</time>
      </trkpt>
      <trkpt lat="43.12604" lon="-0.48793">
        <ele>387.07</ele>
        <time>2021-08-29T09:33:47Z</time>
      </trkpt>
      <trkpt lat="43.12564" lon="-0.48839">
        <ele>385.63</ele>
        <time>2021-08-29T09:33:59Z</time>
      </trkpt>
      <trkpt lat="43.12551" lon="-0.48854">
        <ele>384.66</ele>
        <time>2021-08-29T09:34:04Z</time>
      </trkpt>
      <trkpt lat="43.12546" lon="-0.48855">
        <ele>384.18</ele>
        <time>2021-08-29T09:34:17Z</time>
      </trkpt>
      <trkpt lat="43.12544" lon="-0.48857">
        <ele>384.18</ele>
        <time>2021-08-29T09:34:24Z</time>
      </trkpt>
      <trkpt lat="43.12525" lon="-0.48888">
        <ele>380.34</ele>
        <time>2021-08-29T09:34:34Z</time>
      </trkpt>
      <trkpt lat="43.12523" lon="-0.48892">
        <ele>380.34</ele>
        <time>2021-08-29T09:34:35Z</time>
      </trkpt>
      <trkpt lat="43.12517" lon="-0.48897">
        <ele>379.38</ele>
        <time>2021-08-29T09:34:37Z</time>
      </trkpt>
      <trkpt lat="43.12499" lon="-0.48895">
        <ele>375.53</ele>
        <time>2021-08-29T09:34:41Z</time>
      </trkpt>
      <trkpt lat="43.12482" lon="-0.48889">
        <ele>371.69</ele>
        <time>2021-08-29T09:34:45Z</time>
      </trkpt>
      <trkpt lat="43.1247" lon="-0.48878">
        <ele>369.28</ele>
        <time>2021-08-29T09:34:49Z</time>
      </trkpt>
      <trkpt lat="43.12458" lon="-0.48884">
        <ele>367.36</ele>
        <time>2021-08-29T09:34:52Z</time>
      </trkpt>
      <trkpt lat="43.12451" lon="-0.48891">
        <ele>366.88</ele>
        <time>2021-08-29T09:34:54Z</time>
      </trkpt>
      <trkpt lat="43.12434" lon="-0.4891">
        <ele>364</ele>
        <time>2021-08-29T09:34:58Z</time>
      </trkpt>
      <trkpt lat="43.12414" lon="-0.48934">
        <ele>360.63</ele>
        <time>2021-08-29T09:35:03Z</time>
      </trkpt>
      <trkpt lat="43.12403" lon="-0.48958">
        <ele>357.27</ele>
        <time>2021-08-29T09:35:07Z</time>
      </trkpt>
      <trkpt lat="43.12385" lon="-0.48994">
        <ele>352.94</ele>
        <time>2021-08-29T09:35:12Z</time>
      </trkpt>
      <trkpt lat="43.12368" lon="-0.49041">
        <ele>349.1</ele>
        <time>2021-08-29T09:35:17Z</time>
      </trkpt>
      <trkpt lat="43.12365" lon="-0.49048">
        <ele>349.1</ele>
        <time>2021-08-29T09:35:18Z</time>
      </trkpt>
      <trkpt lat="43.12355" lon="-0.49062">
        <ele>349.1</ele>
        <time>2021-08-29T09:35:21Z</time>
      </trkpt>
      <trkpt lat="43.12343" lon="-0.4908">
        <ele>346.21</ele>
        <time>2021-08-29T09:35:24Z</time>
      </trkpt>
      <trkpt lat="43.12324" lon="-0.49098">
        <ele>343.81</ele>
        <time>2021-08-29T09:35:28Z</time>
      </trkpt>
      <trkpt lat="43.12314" lon="-0.49101">
        <ele>342.37</ele>
        <time>2021-08-29T09:35:31Z</time>
      </trkpt>
      <trkpt lat="43.12306" lon="-0.49106">
        <ele>340.44</ele>
        <time>2021-08-29T09:35:33Z</time>
      </trkpt>
      <trkpt lat="43.12289" lon="-0.49114">
        <ele>336.6</ele>
        <time>2021-08-29T09:35:37Z</time>
      </trkpt>
      <trkpt lat="43.12287" lon="-0.49117">
        <ele>335.64</ele>
        <time>2021-08-29T09:35:38Z</time>
      </trkpt>
      <trkpt lat="43.12277" lon="-0.49135">
        <ele>329.87</ele>
        <time>2021-08-29T09:35:43Z</time>
      </trkpt>
      <trkpt lat="43.12274" lon="-0.4914">
        <ele>328.43</ele>
        <time>2021-08-29T09:35:44Z</time>
      </trkpt>
      <trkpt lat="43.12269" lon="-0.49152">
        <ele>324.58</ele>
        <time>2021-08-29T09:35:48Z</time>
      </trkpt>
      <trkpt lat="43.12268" lon="-0.49159">
        <ele>322.66</ele>
        <time>2021-08-29T09:35:50Z</time>
      </trkpt>
      <trkpt lat="43.12271" lon="-0.49182">
        <ele>317.85</ele>
        <time>2021-08-29T09:35:56Z</time>
      </trkpt>
      <trkpt lat="43.12268" lon="-0.49184">
        <ele>317.37</ele>
        <time>2021-08-29T09:36:04Z</time>
      </trkpt>
      <trkpt lat="43.12266" lon="-0.49186">
        <ele>316.89</ele>
        <time>2021-08-29T09:36:12Z</time>
      </trkpt>
      <trkpt lat="43.12262" lon="-0.49187">
        <ele>314.97</ele>
        <time>2021-08-29T09:36:16Z</time>
      </trkpt>
      <trkpt lat="43.12251" lon="-0.49197">
        <ele>309.68</ele>
        <time>2021-08-29T09:36:21Z</time>
      </trkpt>
      <trkpt lat="43.12244" lon="-0.49212">
        <ele>306.8</ele>
        <time>2021-08-29T09:36:27Z</time>
      </trkpt>
      <trkpt lat="43.12245" lon="-0.4922">
        <ele>306.8</ele>
        <time>2021-08-29T09:36:30Z</time>
      </trkpt>
      <trkpt lat="43.12248" lon="-0.49264">
        <ele>306.8</ele>
        <time>2021-08-29T09:36:41Z</time>
      </trkpt>
      <trkpt lat="43.12253" lon="-0.49303">
        <ele>306.32</ele>
        <time>2021-08-29T09:36:53Z</time>
      </trkpt>
      <trkpt lat="43.12255" lon="-0.49316">
        <ele>306.32</ele>
        <time>2021-08-29T09:37:01Z</time>
      </trkpt>
      <trkpt lat="43.12259" lon="-0.4935">
        <ele>305.84</ele>
        <time>2021-08-29T09:37:09Z</time>
      </trkpt>
      <trkpt lat="43.12275" lon="-0.49413">
        <ele>305.84</ele>
        <time>2021-08-29T09:37:21Z</time>
      </trkpt>
      <trkpt lat="43.12276" lon="-0.49418">
        <ele>305.84</ele>
        <time>2021-08-29T09:37:22Z</time>
      </trkpt>
      <trkpt lat="43.12288" lon="-0.49453">
        <ele>304.88</ele>
        <time>2021-08-29T09:37:28Z</time>
      </trkpt>
      <trkpt lat="43.12297" lon="-0.49479">
        <ele>304.39</ele>
        <time>2021-08-29T09:37:32Z</time>
      </trkpt>
      <trkpt lat="43.12304" lon="-0.49507">
        <ele>303.91</ele>
        <time>2021-08-29T09:37:38Z</time>
      </trkpt>
      <trkpt lat="43.12306" lon="-0.49548">
        <ele>301.99</ele>
        <time>2021-08-29T09:37:48Z</time>
      </trkpt>
      <trkpt lat="43.12308" lon="-0.49562">
        <ele>300.07</ele>
        <time>2021-08-29T09:37:52Z</time>
      </trkpt>
      <trkpt lat="43.12313" lon="-0.49574">
        <ele>298.63</ele>
        <time>2021-08-29T09:37:55Z</time>
      </trkpt>
      <trkpt lat="43.12316" lon="-0.49589">
        <ele>297.67</ele>
        <time>2021-08-29T09:38:05Z</time>
      </trkpt>
      <trkpt lat="43.1231" lon="-0.49602">
        <ele>297.18</ele>
        <time>2021-08-29T09:38:37Z</time>
      </trkpt>
      <trkpt lat="43.12291" lon="-0.49642">
        <ele>296.7</ele>
        <time>2021-08-29T09:38:52Z</time>
      </trkpt>
      <trkpt lat="43.12286" lon="-0.4965">
        <ele>296.7</ele>
        <time>2021-08-29T09:38:55Z</time>
      </trkpt>
      <trkpt lat="43.1227" lon="-0.49637">
        <ele>300.07</ele>
        <time>2021-08-29T09:39:04Z</time>
      </trkpt>
      <trkpt lat="43.12257" lon="-0.49618">
        <ele>302.47</ele>
        <time>2021-08-29T09:39:16Z</time>
      </trkpt>
      <trkpt lat="43.12237" lon="-0.49603">
        <ele>305.84</ele>
        <time>2021-08-29T09:39:30Z</time>
      </trkpt>
      <trkpt lat="43.1223" lon="-0.49597">
        <ele>307.28</ele>
        <time>2021-08-29T09:39:35Z</time>
      </trkpt>
      <trkpt lat="43.12226" lon="-0.49595">
        <ele>308.72</ele>
        <time>2021-08-29T09:39:38Z</time>
      </trkpt>
      <trkpt lat="43.12212" lon="-0.49583">
        <ele>312.09</ele>
        <time>2021-08-29T09:39:51Z</time>
      </trkpt>
      <trkpt lat="43.12202" lon="-0.4958">
        <ele>314.01</ele>
        <time>2021-08-29T09:39:59Z</time>
      </trkpt>
      <trkpt lat="43.12202" lon="-0.49587">
        <ele>315.45</ele>
        <time>2021-08-29T09:40:05Z</time>
      </trkpt>
      <trkpt lat="43.1219" lon="-0.49608">
        <ele>317.85</ele>
        <time>2021-08-29T09:40:22Z</time>
      </trkpt>
      <trkpt lat="43.12175" lon="-0.49626">
        <ele>320.74</ele>
        <time>2021-08-29T09:40:37Z</time>
      </trkpt>
      <trkpt lat="43.12174" lon="-0.49628">
        <ele>321.7</ele>
        <time>2021-08-29T09:40:39Z</time>
      </trkpt>
      <trkpt lat="43.12152" lon="-0.49636">
        <ele>322.66</ele>
        <time>2021-08-29T09:40:51Z</time>
      </trkpt>
    </trkseg>
  </trk>
</gpx>